{"data":{"norad_id":61944,"intl_designator":"2024-209F","name":"STARLINK-11422 [DTC]","alt_names":[],"object_type":"PAYLOAD","status":"ACTIVE","operator":null,"country":"US","launch_date":"2024-11-14","launch_site_code":"AFWTR","launch_vehicle":null,"mission":null,"orbit_class":"UNKNOWN","rcs_meters":null,"size_class":null,"mass_kg":null,"dimensions":null,"purposes":["comms"],"wikipedia_slug":null,"has_3d_model":false,"image_url":null,"decayed_at":null,"tle_current":{"epoch":"2026-05-24T22:59:46.699296Z","epoch_age_seconds":78431,"freshness":"FRESH","line1":"1 61944U 24209F   26144.95817939  .00193104  00000+0  15595-2 0  9993","line2":"2 61944  53.1574 355.5117 0001109  69.9966 290.1171 15.69748136 88652","mean_motion":15.69748136,"eccentricity":0.0001109,"inclination_deg":53.1574,"raan_deg":355.5117,"arg_perigee_deg":69.9966,"mean_anomaly_deg":290.1171,"bstar":0.0015595,"rev_number":8865,"period_min":91.734461534025,"perigee_km":358.87040500727,"apogee_km":360.36483898243,"semimajor_km":6737.7546219949,"source":"CELESTRAK","updated_at":"2026-05-25T13:38:19.486798Z"}}}